Regional Weather Roundup
Issued by NWS

Home | Current Version | Previous Version | Graphics & Text | Print | Product List | Glossary On
Versions: 1 2 3 4 5 6 7 8 9 10 11 12 13 14 15 16 17 18 19 20 21 22 23 24 25 26 27 28 29 30 31 32 33 34 35 36 37 38 39 40 41 42 43 44 45 46 47 48 49 50
000
ASUS43 KIND 210709
RWRIN

WEATHER ROUNDUP FOR INDIANA
NATIONAL WEATHER SERVICE INDIANAPOLIS IN
200 AM EST SUN JAN 21 2018

NOTE: "FAIR" INDICATES FEW OR NO CLOUDS BELOW 12,000 FEET WITH NO
SIGNIFICANT WEATHER AND/OR OBSTRUCTIONS TO VISIBILITY.

* - STATION DOES NOT REPORT WEATHER SUCH AS PRECIPITATION OR FOG.

+ - STATION NOT QUALITY CONTROLLED BY THE NATIONAL WEATHER SERVICE.
    USE DATA WITH CAUTION...ESPECIALLY DEWPOINT AND RELATIVE
    HUMIDITY OBSERVATIONS.

INZ001>003-010>013-019-020-210800-
NORTHWEST INDIANA

CITY           SKY/WX    TMP DP  RH WIND       PRES   REMARKS
GARY /AIRPORT/ CLOUDY    40  36  83 S5        30.01F WCI  37
KNOX *+        CLOUDY    36  32  87 CALM      30.02S
LA PORTE +     MOCLDY    34  33  96 CALM      30.02S
MICHIGAN CITY+ CLOUDY    37  34  87 S5        30.02S WCI  34
MONTICELLO +   CLOUDY    38  37  94 S6        30.03R FOG     WCI  34
RENSSELAER +   CLOUDY    37  34  87 S6        30.02S FOG     WCI  33
VALPARAISO     CLOUDY    38  34  85 S6        30.02S WCI  33

$$

LMZ046-743>745-210800-
SOUTHERN LAKE MICHIGAN

STATION/POSITION TIME  TEMP    WIND        PRES    WAVE
                       AIR SEA DIR/SP/G            HT
                 (UTC) (F)     (DEG/KT/KT) (MB)    (FT)
BURNS HARBOR     0640   38     180/ 10/ 12 1016.9S
MICHIGAN CITY    0640   38     160/  8/ 10   N/A

$$

INZ004-005-014>016-021>024-210800-
NORTH CENTRAL INDIANA

CITY           SKY/WX    TMP DP  RH WIND       PRES   REMARKS
GOSHEN         CLOUDY    37  35  92 SW5       30.02F WCI  33
LOGANSPORT +   FOG       36  34  93 S6        30.05S VSB 1/4 WCI  31
PERU/GRISSOM   CLOUDY    39  39 100 SW8       30.03S FOG     WCI  34
ROCHESTER +    FOG       39  39 100 SW5       30.04S VSB 1   WCI  36
SOUTH BEND     CLOUDY    36  33  89 S6        30.03S WCI  31
WARSAW +       CLOUDY    37  36  93 CALM      30.03F FOG

$$

INZ006>009-017-018-025>027-210800-
NORTHEAST INDIANA

CITY           SKY/WX    TMP DP  RH WIND       PRES   REMARKS
AUBURN +       CLOUDY   N/A N/A N/A CALM      30.04S FOG
FORT WAYNE     DRIZZLE   38  37  97 S5        30.05S FOG     WCI  34
HUNTINGTON +   CLOUDY    37  36  96 SW3       30.04S FOG
KENDALLVILLE + CLOUDY    37  37 100 SW6       30.03S FOG     WCI  32

$$

INZ028-029-035-036-043>045-051>053-210800-
WEST CENTRAL INDIANA

CITY           SKY/WX    TMP DP  RH WIND       PRES   REMARKS
CRAWFORDSVL +  FOG       36  36 100 MISG      30.04F VSB 1/2
GREENCASTLE +  FOG       37  37 100 CALM      30.05F VSB 1
LAFAYETTE      FOG       39  39 100 S3        30.03F VSB 3/4
TERRE HAUTE    CLOUDY    38  37  97 E3        30.04S FOG

$$

INZ030>032-037>040-046>048-054>057-064-065-210800-
CENTRAL INDIANA

CITY           SKY/WX    TMP DP  RH WIND       PRES   REMARKS
FISHERS *+       N/A     37  37 100 CALM      30.06F
FRANKFORT +    FOG       41  40  97 SW7       30.05F VSB 3/4
GREENWOOD *+   CLOUDY    41  40  96 CALM      30.06F VSB 3/4
INDIANAPOLIS   FOG       39  39 100 SE3       30.06F VSB 1/4
-EAGLE CREEK   FOG       39  38  96 CALM      30.05F VSB 1/4
MARION +       CLOUDY    37  37  99 CALM      30.05S FOG
MT COMFORT *+  CLOUDY    36  36 100 S3        30.06F VSB 1/4
SHELBYVILLE    CLOUDY    42  40  92 S8        30.06S
ZIONSVILLE +   CLOUDY    38  38 100 S5        30.05F FOG     WCI  34

$$

INZ033-034-041-042-049-050-058-059-210800-
EAST CENTRAL INDIANA

CITY           SKY/WX    TMP DP  RH WIND       PRES   REMARKS
MUNCIE         CLOUDY    42  40  92 S7        30.05F FOG
RICHMOND +     FOG       36  36 100 S8        30.08S VSB 1/2 WCI  29

$$

INZ060-061-067>069-081>083-085>088-210800-
SOUTHWEST INDIANA

CITY           SKY/WX    TMP DP  RH WIND       PRES   REMARKS
EVANSVILLE     MOCLDY    45  42  89 S7        30.06F
HUNTINGBURG +  CLOUDY    46  41  82 S7        30.07F
WASHINGTON +   CLOUDY    43  40  89 S7        30.05S

$$

INZ062-063-066-070>080-084-089>092-210800-
SOUTH CENTRAL AND SOUTHEAST INDIANA

CITY           SKY/WX    TMP DP  RH WIND       PRES   REMARKS
BATESVILLE *+    N/A    N/A N/A N/A MISG        N/A
BEDFORD +      CLOUDY    48  45  87 S5        30.06F
BLOOMINGTON    CLOUDY    48  43  82 S6        30.05F
FRENCH LICK *+ CLOUDY    48  41  76 S6        30.07F
MADISON *+     CLOUDY    45  39  81 S6        30.11S
NORTH VERNON + CLOUDY    43  41  93 S6        30.09F
SEYMOUR +      CLOUDY    43  41  93 S5        30.08F

$$




USA.gov is the U.S. government's official web portal to all federal, state and local government web resources and services.